Regional Weather Roundup
Issued by NWS Charleston, SC

Current Version | Previous Version | Text Only | Print | Product List | Glossary On
Versions: 1 2 3 4 5 6 7 8 9 10 11 12 13 14 15 16 17 18 19 20 21 22 23 24 25 26 27 28 29 30 31 32 33 34 35 36 37 38 39 40 41 42 43 44 45 46 47 48 49 50
000 ASUS42 KCHS 011328 RWRCHS REGIONAL WEATHER ROUNDUP NATIONAL WEATHER SERVICE CHARLESTON SC 900 AM EDT SAT OCT 01 2016 NOTE: "FAIR" INDICATES FEW OR NO CLOUDS BELOW 12,000 FEET WITH NO SIGNIFICANT WEATHER AND/OR OBSTRUCTIONS TO VISIBILITY. NOT ALL STATIONS ARE QUALITY CONTROLLED. USE DATA WITH CAUTION... ESPECIALLY DEWPOINT OBSERVATIONS. SCZ027-030-031-034>040-042>050-011400- ...SOUTHEAST SOUTH CAROLINA... CITY SKY/WX TMP DP RH WIND PRES REMARKS N CHARLESTON PTSUNNY 71 61 70 NE5 30.08R WATERFRONT PRK N/A 73 63 70 N7 30.05R MOUNT PLEASANT PTSUNNY 70 64 83 CALM 30.08R JOHNS ISLAND PTSUNNY 72 64 78 N6 30.09R PINOPOLIS N/A 73 59 60 VRB3 29.99R MONCKS CORNER FAIR 64 61 88 CALM 30.09R SUMMERVILLE FAIR 64 64 100 CALM 30.09R BEAUFORT MCAS N/A 67 58 72 N7 30.08R BEAUFORT ARPT FAIR 68 59 73 N5 30.08R HILTON HEAD IS MOSUNNY 73 61 64 N7 30.08R WALTERBORO MOSUNNY 68 61 77 CALM 30.10R ALLENDALE FAIR 64 55 72 N3 30.09R ...SOUTHERN MIDLANDS AND PEE DEE... CITY SKY/WX TMP DP RH WIND PRES REMARKS GEORGETOWN CLOUDY 68 63 83 CALM 30.09R KINGSTREE FAIR 68 61 77 CALM 30.09R ORANGEBURG MOSUNNY 63 57 81 CALM 30.09R BARNWELL NOT AVBL AIKEN FAIR 63 52 67 CALM 30.12S MANNING FAIR 63 59 88 CALM 30.09R COLUMBIA MOSUNNY 59 53 80 SE3 30.09R SUMTER SUNNY 64 56 77 CALM 30.07R FLORENCE SUNNY 65 61 87 CALM 30.09R MYRTLE BEACH PTSUNNY 70 59 68 N7 30.09R N MYRTLE BEACH CLOUDY 70 65 84 CALM 30.08R $$ GAZ063-065-086>088-099>101-113>116-118-119-134>141-150-011400- ...SOUTHEAST GEORGIA... CITY SKY/WX TMP DP RH WIND PRES REMARKS SAVANNAH ARPT PTSUNNY 65 54 67 N8 30.08R HUNTER AAF CLOUDY 67 58 72 N6 30.05R FORT STEWART MOSUNNY 65 54 67 N1 30.06R STATESBORO SUNNY 66 59 78 CALM 30.10R SYLVANIA NOT AVBL CLAXTON FAIR 63 62 96 CALM 30.10R ...CSRA...CENTRAL AND FAR SOUTHEAST GEORGIA... CITY SKY/WX TMP DP RH WIND PRES REMARKS THOMSON SUNNY 63 55 74 CALM 30.13S AUGUSTA-BUSH SUNNY 58 55 90 CALM 30.10R AUGUSTA-DANIEL SUNNY 65 51 60 CALM 30.10S SWAINSBORO FAIR 64 55 72 CALM 30.11R VIDALIA SUNNY 66 55 68 N3 30.10R EASTMAN FAIR 61 51 68 CALM 30.12S HAZLEHURST FAIR 66 58 74 CALM 30.09R ALMA SUNNY 64 55 72 CALM 30.08R WAYCROSS SUNNY 70 57 64 NE5 30.10R JESUP FAIR 68 59 73 NE7 30.09R BAXLEY FAIR 66 59 77 NE3 30.09R BRUNSWICK PTSUNNY 72 59 64 N3 30.08R SAINT SIMONS MOSUNNY 71 58 63 N7 30.06R $$ SCZ027-028-034-036>038-045-046-048>050-GAZ119-141-011400- ...LAKE AND SUPPLEMENTAL COASTAL OBSERVATIONS... STATION/POSITION TIME TEMP WIND PRES WAVE SWELL AIR SEA DIR/SP/G HT/PER HT/PER/DIR (UTC) (F) (DEG/KT/KT) (MB) (FT/S) (FT/S/D) WINYAH BAY 1245 71 330/ 5 1017.0S LAKE MURRAY 1250 69 CALM / 1 1018.3S ACE BASIN NERRS 1245 66 CALM 1019.0R FORT PULASKI 1300 72 81 360/ 4/ 5 1018.9 SAPELO ISLAND 1300 73 10/ 9 1018.0 $$ ANZ835-935-AMZ111-154-330-350-352-354-370-450-454-472-011400- ...C-MAN AND BUOY OBSERVATIONS... STATION/POSITION TIME TEMP WIND PRES WAVE SWELL AIR SEA DIR/SP/G HT/PER HT/PER/DIR (UTC) (F) (DEG/KT/KT) (MB) (FT/S) (FT/S/D) BUOY 41004 1250 78 82 80/ 14/ 16 1017.4R 2/11 2/ 90/11 BUOY 41008 1250 79 82 30/ 12/ 16 1017.1R 2/ 4 2/110/10 FOLLY BEACH CMAN 1300 74 350/ 7/ 8 1018.5R CAPERS NEARSHORE 1308 78 81 100/ 12/ 16 1017.9R FRIPP NEARSHORE 1308 77 81 30/ 12/ 16 1018.2R STATION/POSITION TIME TEMP WIND PRES WAVE SWELL AIR SEA DIR/SP/G HT/PER HT/PER/DIR (UTC) (F) (DEG/KT/KT) (MB) (FT/S) (FT/S/D) 5E ST. MARYS GA 1301 82 N/A 2/ 3 FRYING PAN BUOY 1310 78 82 160/ 12/ 16 1018.5 BUOY 41025 1250 80 83 190/ 16/ 17 1018.4S 6/11 5/ 50/11 CAPE LOOKOUT NC 1300 78 180/ 18/ 20 1018.1R BUOY 41002 1250 78 83 240/ 12/ 17 1019.3R 6/10 5/ 20/10 BUOY 41010 NOT AVBL ST AUGUSTINE FL 1300 74 82 340/ 5/ 6 1018.4R $$

USA.gov is the U.S. government's official web portal to all federal, state and local government web resources and services.